Regional Weather Roundup
Issued by NWS Jackson, KY

Home | Current Version | Previous Version | Text Only | Print | Product List | Glossary On
Versions: 1 2 3 4 5 6 7 8 9 10 11 12 13 14 15 16 17 18 19 20 21 22 23 24 25 26 27 28 29 30 31 32 33 34 35 36 37 38 39 40 41 42 43 44 45 46 47 48 49 50
000
ASUS43 KJKL 280610
RWRJKL

EAST KENTUCKY HOURLY WEATHER ROUNDUP
NATIONAL WEATHER SERVICE JACKSON KY
200 AM EDT SAT MAY 28 2016

NOTE: "FAIR" INDICATES FEW OR NO CLOUDS BELOW 12,000 FEET WITH
NO SIGNIFICANT WEATHER AND/OR OBSTRUCTIONS TO VISIBILITY.

* THESE REPORTS ARE NOT UNDER NWS QUALITY CONTROL AND MAY NOT
  REPORT WEATHER SUCH AS PRECIPITATION AND FOG.

KYZ079-080-083-085-087-088-110-112-115-119-120-280700
...EASTERN KENTUCKY...

CITY           SKY/WX    TMP DP  RH WIND       PRES   REMARKS
JACKSON        CLOUDY    67  65  93 CALM      30.09S
6HR MIN TEMP:  67; 6HR MAX TEMP:  71; 6HR PCP:  0.30;

LONDON         PTCLDY    67  63  87 CALM      30.08F
6HR MIN TEMP:  67; 6HR MAX TEMP:  75;

SOMERSET*      MOCLDY    66  63  88 CALM      30.07F
MONTICELLO*    CLEAR     69  65  86 NE8       30.08S
6HR MIN TEMP:  69; 6HR MAX TEMP:  75;

WILLIAMSBURG*  PTCLDY    63  63 100 CALM      30.09F
MIDDLESBORO*   CLOUDY    63  63 100 CALM      30.12S
6HR MIN TEMP:  63; 6HR MAX TEMP:  69;

HARLAN APT*    MOCLDY    64  63  94 CALM      30.13S
HAZARD APT*    CLEAR     66  66 100 CALM      30.10S FOG
BLACK MTN*       N/A     63  59  88 SE3         N/A
PIKE CO APT*     N/A     68  66  95 SE6       30.11S
BIG SANDY APT* CLOUDY    72  65  78 S6        30.09F
6HR MIN TEMP:  70; 6HR MAX TEMP:  76;

MOREHEAD APT*  CLOUDY    72  63  73 S5        30.08F
ASHLAND*       CLOUDY    70  66  88 CALM      30.04S
$$

KYZ035-036-041-042-044-050-067-078-099-280700
...CENTRAL KENTUCKY...

CITY           SKY/WX    TMP DP  RH WIND       PRES   REMARKS
MT STERLING*   CLOUDY    72  64  78 SW5       30.07S
FLEMING/MASON* CLOUDY    70  64  80 CALM      30.06S
DANVILLE*      CLEAR     64  63  94 CALM      30.06F
RICHMOND*      CLEAR     72  61  68 S7        30.05F
LEXINGTON      PTCLDY    70  64  81 SE5       30.05S
6HR MIN TEMP:  70; 6HR MAX TEMP:  81;

FRANKFORT      CLEAR     72  64  76 S6        30.03S
6HR MIN TEMP:  72; 6HR MAX TEMP:  82;

LOUISVILLE     CLOUDY    73  64  73 S9        30.00F
6HR MIN TEMP:  73; 6HR MAX TEMP:  84; 6HR PCP: TRACE;

LEBANON*         N/A     70  66  88 S5        30.05F
GLASGOW*       LGT RAIN  68  68 100 CALM      30.02F
BOWLING GREEN  CLOUDY    70  66  87 CALM      30.00F
6HR MIN TEMP:  70; 6HR MAX TEMP:  82; 6HR PCP:  0.03;

$$

KYZ091>093-OHZ055-061-077-WVZ005-015-034-035-042-280700
...SOUTHERN OHIO/WEST VIRGINIA...

CITY           SKY/WX    TMP DP  RH WIND       PRES   REMARKS
COVINGTON      CLOUDY    72  66  81 S12       30.02F
COLUMBUS       PTCLDY    71  64  78 CALM      30.03F
DAYTON         CLOUDY    72  63  73 S5        30.03F
WILMINGTON     MOCLDY    70  64  81 S6        30.04S
HUNTINGTON       N/A     70  65  84 E3        30.06S
CHARLESTON       N/A     68  63  84 CALM      30.09R
PINEVILLE*     MOCLDY    63  60  90 MISG      30.20S FOG
BECKLEY          N/A     67  60  78 SE7       30.18S
BLUEFIELD        N/A     66  59  78 S5        30.21S
LOGAN CO APT*    N/A     70  64  83 CALM      30.11F
$$

VAZ002-007-008-TNZ017-027-036-066-071-280700
...SOUTHWEST VIRGINIA/EAST TENNESSEE...

CITY           SKY/WX    TMP DP  RH WIND       PRES   REMARKS
WISE*            N/A     66  55  68 S8        30.19S
JONESVILLE*      N/A     63  63 100 CALM      30.14S
ABINGDON*        N/A     65  64  96 CALM      30.16F
BRISTOL        PTCLDY    63  62  97 CALM      30.13F FOG
SEVIERVILLE*   CLEAR     64  63  94 CALM      30.09S
KNOXVILLE      CLOUDY    67  66  97 NE3       30.08F FOG
OAK RIDGE      CLOUDY    67  65  93 CALM      30.10S
CROSSVILLE     CLEAR     72  59  63 S6        30.10F
NASHVILLE      CLOUDY    73  62  68 SE3       30.01R
$$

...KEY TO REMARKS...
VSB - VISIBILITY IN MILES
WCI - WIND CHILL INDEX
HX  - HEAT INDEX

$$



USA.gov is the U.S. government's official web portal to all federal, state and local government web resources and services.